| time (UTC) | temp F | wind direction | speed knots | gust knots | rain 1hr in | rain 24hr in | rain mn in | humidity % | barometer mb |
| 20260504150313 | 65 | 211 | 2.6 | 9.6 | 0.00 | 0.00 | 0.00 | 35 | 1012.8 |
| 20260504141313 | 63 | 344 | 3.5 | 7.0 | 0.00 | 0.00 | 0.00 | 40 | 1013.1 |
| 20260504140813 | 63 | 283 | 6.1 | 7.8 | 0.00 | 0.00 | 0.00 | 43 | 1013.1 |
| 20260504140313 | 62 | 271 | 1.7 | 7.8 | 0.00 | 0.00 | 0.00 | 40 | 1013.1 |
| 20260504130812 | 56 | 253 | 0.0 | 7.8 | 0.00 | 0.00 | 0.00 | 52 | 1013.6 |
| 20260504130313 | 56 | 290 | 1.7 | 7.8 | 0.00 | 0.00 | 0.00 | 50 | 1013.6 |
| 20260504120312 | 53 | 199 | 2.6 | 7.0 | 0.00 | 0.00 | 0.00 | 49 | 1013.6 |
| 20260504110312 | 42 | 70 | 0.9 | 1.7 | 0.00 | 0.00 | 0.00 | 73 | 1013.7 |
| 20260504100312 | 38 | 296 | 0.9 | 3.5 | 0.00 | 0.00 | 0.00 | 82 | 1013.5 |
| 20260504081812 | 39 | 275 | 1.7 | 3.5 | 0.00 | 0.00 | 0.00 | 77 | 1013.8 |
| 20260504081312 | 39 | 275 | 0.9 | 2.6 | 0.00 | 0.00 | 0.00 | 77 | 1013.7 |
| 20260504080812 | 39 | 275 | 1.7 | 3.5 | 0.00 | 0.00 | 0.00 | 76 | 1013.7 |
| 20260504080312 | 39 | 275 | 2.6 | 3.5 | 0.00 | 0.00 | 0.00 | 77 | 1013.7 |
| 20260504070312 | 40 | 263 | 0.0 | 4.3 | 0.00 | 0.00 | 0.00 | 73 | 1013.8 |
| 20260504050312 | 41 | 273 | 1.7 | 2.6 | 0.00 | 0.00 | 0.00 | 71 | 1013.8 |
| 20260504045812 | 41 | 273 | 1.7 | 3.5 | 0.00 | 0.00 | 0.00 | 69 | 1013.8 |
| 20260504045312 | 42 | 273 | 0.9 | 3.5 | 0.00 | 0.00 | 0.00 | 68 | 1013.6 |
| 20260504044812 | 42 | 273 | 0.9 | 2.6 | 0.00 | 0.00 | 0.00 | 68 | 1013.6 |
| 20260504044312 | 41 | 273 | 0.9 | 5.2 | 0.00 | 0.00 | 0.00 | 71 | 1013.6 |
| 20260504043812 | 42 | 273 | 0.9 | 5.2 | 0.00 | 0.00 | 0.00 | 70 | 1013.6 |
| 20260504043312 | 42 | 275 | 0.0 | 3.5 | 0.00 | 0.00 | 0.00 | 71 | 1013.6 |
| 20260504042812 | 41 | 274 | 0.0 | 3.5 | 0.00 | 0.00 | 0.00 | 72 | 1013.6 |
| 20260504042312 | 41 | 286 | 0.0 | 2.6 | 0.00 | 0.00 | 0.00 | 70 | 1013.6 |
| 20260504041812 | 42 | 286 | 2.6 | 2.6 | 0.00 | 0.00 | 0.00 | 70 | 1013.5 |
| 20260504041312 | 41 | 286 | 0.9 | 1.7 | 0.00 | 0.00 | 0.00 | 72 | 1013.4 |
| 20260504040812 | 41 | 286 | 0.9 | 2.6 | 0.00 | 0.00 | 0.00 | 71 | 1013.4 |
| 20260504040312 | 42 | 286 | 0.9 | 2.6 | 0.00 | 0.00 | 0.00 | 71 | 1013.3 |
| 20260504035812 | 42 | 286 | 0.9 | 2.6 | 0.00 | 0.00 | 0.00 | 69 | 1013.3 |
| 20260504034312 | 41 | 286 | 2.6 | 3.5 | 0.00 | 0.00 | 0.00 | 68 | 1013.1 |
| 20260504033312 | 42 | 261 | 0.9 | 2.6 | 0.00 | 0.00 | 0.00 | 68 | 1013.0 |
| 20260504032812 | 42 | 261 | 0.9 | 2.6 | 0.00 | 0.00 | 0.00 | 68 | 1013.0 |
| 20260504032312 | 42 | 257 | 1.7 | 2.6 | 0.00 | 0.00 | 0.00 | 68 | 1013.0 |
| 20260504031812 | 42 | 257 | 1.7 | 2.6 | 0.00 | 0.00 | 0.00 | 68 | 1013.0 |
| 20260504031312 | 42 | 257 | 2.6 | 3.5 | 0.00 | 0.00 | 0.00 | 68 | 1013.0 |
| 20260504030812 | 42 | 257 | 1.7 | 3.5 | 0.00 | 0.00 | 0.00 | 67 | 1012.9 |
| 20260504025812 | 43 | 257 | 0.9 | 2.6 | 0.00 | 0.00 | 0.00 | 68 | 1013.0 |
| 20260504025312 | 43 | 257 | 0.9 | 2.6 | 0.00 | 0.00 | 0.00 | 68 | 1012.8 |
| 20260504024812 | 42 | 257 | 0.9 | 2.6 | 0.00 | 0.00 | 0.00 | 70 | 1012.9 |
| 20260504024312 | 42 | 257 | 0.9 | 1.7 | 0.00 | 0.00 | 0.00 | 69 | 1012.9 |
| 20260504023812 | 43 | 257 | 0.9 | 1.7 | 0.00 | 0.00 | 0.00 | 68 | 1012.9 |
| 20260504023312 | 43 | 257 | 0.9 | 1.7 | 0.00 | 0.00 | 0.00 | 68 | 1012.9 |
| 20260504022812 | 43 | 257 | 0.0 | 1.7 | 0.00 | 0.00 | 0.00 | 68 | 1012.9 |
| 20260504022312 | 43 | 257 | 0.9 | 1.7 | 0.00 | 0.00 | 0.00 | 68 | 1012.9 |
| 20260504021312 | 43 | 257 | 0.9 | 2.6 | 0.00 | 0.00 | 0.00 | 70 | 1013.0 |
| 20260504020812 | 43 | 257 | 0.9 | 2.6 | 0.00 | 0.00 | 0.00 | 71 | 1012.9 |
| 20260504020312 | 44 | 257 | 0.9 | 2.6 | 0.00 | 0.00 | 0.00 | 66 | 1012.9 |
| 20260504015812 | 45 | 257 | 0.9 | 2.6 | 0.00 | 0.00 | 0.00 | 63 | 1013.0 |
| 20260504014812 | 45 | 257 | 0.9 | 3.5 | 0.00 | 0.00 | 0.00 | 68 | 1012.7 |
| 20260504014312 | 45 | 276 | 1.7 | 5.2 | 0.00 | 0.00 | 0.00 | 66 | 1012.7 |
| 20260504013812 | 46 | 276 | 0.9 | 5.2 | 0.00 | 0.00 | 0.00 | 63 | 1012.7 |
| 20260504013312 | 45 | 280 | 0.0 | 3.5 | 0.00 | 0.00 | 0.00 | 64 | 1012.7 |
| 20260504012812 | 45 | 280 | 0.9 | 3.5 | 0.00 | 0.00 | 0.00 | 64 | 1012.6 |
| 20260504012312 | 45 | 280 | 1.7 | 3.5 | 0.00 | 0.00 | 0.00 | 65 | 1012.7 |
| 20260504011812 | 45 | 280 | 0.9 | 3.5 | 0.00 | 0.00 | 0.00 | 65 | 1012.7 |
| 20260504011312 | 45 | 325 | 1.7 | 3.5 | 0.00 | 0.00 | 0.00 | 64 | 1012.6 |
| 20260504010312 | 46 | 201 | 0.9 | 2.6 | 0.00 | 0.00 | 0.00 | 59 | 1012.5 |
| 20260504005812 | 46 | 202 | 0.9 | 3.5 | 0.00 | 0.00 | 0.00 | 60 | 1012.5 |
| 20260504005312 | 46 | 202 | 2.6 | 3.5 | 0.00 | 0.00 | 0.00 | 60 | 1012.3 |
| 20260504004312 | 47 | 270 | 0.0 | 1.7 | 0.00 | 0.00 | 0.00 | 61 | 1012.3 |
| 20260504003312 | 50 | 270 | 0.9 | 5.2 | 0.00 | 0.00 | 0.00 | 52 | 1012.1 |
| 20260504002812 | 51 | 284 | 2.6 | 5.2 | 0.00 | 0.00 | 0.00 | 52 | 1012.2 |
| 20260504002312 | 51 | 216 | 1.7 | 3.5 | 0.00 | 0.00 | 0.00 | 50 | 1012.1 |
| 20260504001812 | 51 | 155 | 1.7 | 3.5 | 0.00 | 0.00 | 0.00 | 49 | 1012.0 |
| 20260504001312 | 52 | 223 | 2.6 | 7.8 | 0.00 | 0.00 | 0.00 | 48 | 1012.0 |
| 20260504000812 | 53 | 314 | 0.9 | 7.8 | 0.00 | 0.00 | 0.00 | 46 | 1011.9 |
| 20260504000312 | 53 | 326 | 0.9 | 7.0 | 0.00 | 0.00 | 0.00 | 44 | 1011.8 |
| 20260503235812 | 53 | 271 | 1.7 | 13.0 | 0.00 | 0.00 | 0.00 | 44 | 1011.9 |
| 20260503235312 | 52 | 211 | 6.1 | 13.0 | 0.00 | 0.00 | 0.00 | 49 | 1011.8 |
| 20260503234812 | 53 | 270 | 2.6 | 7.8 | 0.00 | 0.00 | 0.00 | 44 | 1011.7 |
| 20260503234312 | 54 | 230 | 1.7 | 7.8 | 0.00 | 0.00 | 0.00 | 40 | 1011.7 |
| 20260503233312 | 55 | 303 | 3.5 | 7.8 | 0.00 | 0.00 | 0.00 | 39 | 1011.7 |
| 20260503232812 | 55 | 290 | 3.5 | 7.8 | 0.00 | 0.00 | 0.00 | 38 | 1011.7 |
| 20260503232312 | 56 | 218 | 1.7 | 5.2 | 0.00 | 0.00 | 0.00 | 35 | 1011.7 |
| 20260503231812 | 56 | 230 | 0.0 | 9.6 | 0.00 | 0.00 | 0.00 | 37 | 1011.7 |
| 20260503231312 | 56 | 207 | 0.9 | 9.6 | 0.00 | 0.00 | 0.00 | 35 | 1011.5 |
| 20260503230812 | 56 | 294 | 4.3 | 13.9 | 0.00 | 0.00 | 0.00 | 37 | 1011.6 |
| 20260503230312 | 56 | 339 | 2.6 | 13.9 | 0.00 | 0.00 | 0.00 | 36 | 1011.5 |
| 20260503225312 | 57 | 246 | 7.0 | 7.8 | 0.00 | 0.00 | 0.00 | 36 | 1011.5 |
| 20260503224812 | 57 | 329 | 0.9 | 8.7 | 0.00 | 0.00 | 0.00 | 37 | 1011.4 |
| 20260503224312 | 57 | 248 | 4.3 | 14.8 | 0.00 | 0.00 | 0.00 | 34 | 1011.4 |
| 20260503223312 | 57 | 268 | 1.7 | 9.6 | 0.00 | 0.00 | 0.00 | 37 | 1011.3 |
| 20260503221812 | 56 | 266 | 9.6 | 12.2 | 0.00 | 0.00 | 0.00 | 34 | 1011.4 |
| 20260503221312 | 57 | 286 | 3.5 | 9.6 | 0.00 | 0.00 | 0.00 | 38 | 1011.4 |
| 20260503220812 | 57 | 238 | 4.3 | 6.1 | 0.00 | 0.00 | 0.00 | 35 | 1011.4 |
| 20260503220312 | 57 | 271 | 1.7 | 7.8 | 0.00 | 0.00 | 0.00 | 33 | 1011.5 |
| 20260503215812 | 57 | 269 | 5.2 | 14.8 | 0.00 | 0.00 | 0.00 | 36 | 1011.5 |
| 20260503215312 | 57 | 294 | 3.5 | 14.8 | 0.00 | 0.00 | 0.00 | 31 | 1011.5 |
| 20260503214812 | 58 | 234 | 11.3 | 13.9 | 0.00 | 0.00 | 0.00 | 33 | 1011.5 |
| 20260503214312 | 58 | 279 | 2.6 | 10.4 | 0.00 | 0.00 | 0.00 | 31 | 1011.4 |
| 20260503213812 | 58 | 17 | 0.9 | 13.9 | 0.00 | 0.00 | 0.00 | 31 | 1011.4 |
| 20260503213312 | 59 | 221 | 2.6 | 20.0 | 0.00 | 0.00 | 0.00 | 30 | 1011.4 |
| 20260503212812 | 58 | 259 | 12.2 | 20.0 | 0.00 | 0.00 | 0.00 | 32 | 1011.4 |
| 20260503211812 | 59 | 257 | 9.6 | 13.9 | 0.00 | 0.00 | 0.00 | 30 | 1011.2 |
| 20260503211312 | 59 | 360 | 13.0 | 13.0 | 0.00 | 0.00 | 0.00 | 32 | 1011.3 |
| 20260503210812 | 60 | 360 | 2.6 | 12.2 | 0.00 | 0.00 | 0.00 | 33 | 1011.3 |
| 20260503210312 | 59 | 258 | 1.7 | 15.6 | 0.00 | 0.00 | 0.00 | 32 | 1011.3 |
| 20260503205812 | 60 | 252 | 1.7 | 15.6 | 0.00 | 0.00 | 0.00 | 30 | 1011.2 |
| 20260503205312 | 59 | 5 | 3.5 | 8.7 | 0.00 | 0.00 | 0.00 | 31 | 1011.3 |
| 20260503204812 | 59 | 329 | 3.5 | 14.8 | 0.00 | 0.00 | 0.00 | 30 | 1011.4 |
| 20260503204312 | 59 | 273 | 3.5 | 14.8 | 0.00 | 0.00 | 0.00 | 30 | 1011.3 |
| 20260503203812 | 59 | 317 | 1.7 | 14.8 | 0.00 | 0.00 | 0.00 | 30 | 1011.4 |
| 20260503203312 | 59 | 285 | 3.5 | 12.2 | 0.00 | 0.00 | 0.00 | 30 | 1011.3 |
| 20260503202812 | 60 | 242 | 10.4 | 13.0 | 0.00 | 0.00 | 0.00 | 35 | 1011.5 |
| 20260503202312 | 60 | 275 | 6.1 | 13.0 | 0.00 | 0.00 | 0.00 | 33 | 1011.6 |
| 20260503200812 | 60 | 300 | 6.1 | 15.6 | 0.00 | 0.00 | 0.00 | 31 | 1011.7 |
| 20260503200312 | 59 | 44 | 1.7 | 15.6 | 0.00 | 0.00 | 0.00 | 33 | 1011.6 |
| 20260503195812 | 59 | 200 | 4.3 | 12.2 | 0.00 | 0.00 | 0.00 | 30 | 1011.7 |
| 20260503194812 | 58 | 286 | 5.2 | 17.4 | 0.00 | 0.00 | 0.00 | 35 | 1011.7 |
| 20260503193812 | 58 | 355 | 5.2 | 16.5 | 0.00 | 0.00 | 0.00 | 33 | 1012.0 |
| 20260503193312 | 58 | 66 | 7.8 | 16.5 | 0.00 | 0.00 | 0.00 | 32 | 1012.1 |
| 20260503192812 | 58 | 25 | 13.0 | 16.5 | 0.00 | 0.00 | 0.00 | 29 | 1012.3 |
| 20260503191812 | 59 | 286 | 6.1 | 17.4 | 0.00 | 0.00 | 0.00 | 36 | 1012.2 |
| 20260503191312 | 57 | 222 | 5.2 | 18.2 | 0.00 | 0.00 | 0.00 | 31 | 1012.3 |
| 20260503190812 | 58 | 319 | 7.8 | 18.2 | 0.00 | 0.00 | 0.00 | 40 | 1012.4 |
| 20260503185812 | 56 | 350 | 5.2 | 17.4 | 0.00 | 0.00 | 0.00 | 32 | 1012.4 |
| 20260503185312 | 58 | 292 | 3.5 | 17.4 | 0.00 | 0.00 | 0.00 | 33 | 1012.3 |
| 20260503184812 | 58 | 263 | 6.1 | 13.0 | 0.00 | 0.00 | 0.00 | 30 | 1012.4 |
| 20260503184312 | 58 | 306 | 2.6 | 13.0 | 0.00 | 0.00 | 0.00 | 37 | 1012.5 |
| 20260503183812 | 57 | 11 | 7.8 | 19.1 | 0.00 | 0.00 | 0.00 | 32 | 1012.6 |
| 20260503183312 | 57 | 5 | 11.3 | 19.1 | 0.00 | 0.00 | 0.00 | 35 | 1012.6 |
| 20260503182812 | 58 | 20 | 6.1 | 17.4 | 0.00 | 0.00 | 0.00 | 36 | 1012.6 |
| 20260503181812 | 57 | 265 | 11.3 | 15.6 | 0.00 | 0.00 | 0.00 | 36 | 1012.6 |
| 20260503181312 | 54 | 334 | 5.2 | 15.6 | 0.00 | 0.00 | 0.00 | 34 | 1012.6 |
| 20260503180812 | 56 | 349 | 4.3 | 15.6 | 0.00 | 0.00 | 0.00 | 31 | 1012.4 |
| 20260503180312 | 56 | 229 | 11.3 | 15.6 | 0.00 | 0.00 | 0.00 | 35 | 1012.5 |
| 20260503175312 | 56 | 355 | 3.5 | 16.5 | 0.00 | 0.00 | 0.00 | 33 | 1012.7 |
| 20260503174812 | 56 | 258 | 6.1 | 20.0 | 0.00 | 0.00 | 0.00 | 32 | 1012.7 |
| 20260503174312 | 56 | 5 | 7.0 | 20.0 | 0.00 | 0.00 | 0.00 | 32 | 1012.8 |
| 20260503172812 | 55 | 341 | 8.7 | 9.6 | 0.00 | 0.00 | 0.00 | 34 | 1012.8 |
| 20260503172312 | 54 | 355 | 3.5 | 19.1 | 0.00 | 0.00 | 0.00 | 37 | 1012.8 |
| 20260503170812 | 55 | 355 | 4.3 | 17.4 | 0.00 | 0.00 | 0.00 | 36 | 1013.0 |
| 20260503170312 | 54 | 279 | 11.3 | 17.4 | 0.00 | 0.00 | 0.00 | 35 | 1013.0 |
| 20260503150812 | 50 | 18 | 2.6 | 15.6 | 0.00 | 0.00 | 0.00 | 47 | 1013.8 |